When you browse on this site, cookies collect data to enhance your experience and personalize the content and advertising you see.
Visit our Privacy Policy to learn more. By continuing to use the site, you agree to this use of cookies and data.
  • In United Kingdom
  • List of Countries
  • For 7 days
  • Water Temperature
  • Weather Map
  • Weather Widgets
  • user-avatar
    Login

    Hourly Weather Top

    Today, 28 February, Friday

    Time Temperature Precipitation Wind Pressure Humidity
    00:00 +16°C° 0 mm 1 mps 684 mmHg 91%
    01:00 +16°C° 0 mm 1 mps 684 mmHg 94%
    02:00 +16°C° 0 mm 1 mps 684 mmHg 94%
    03:00 +16°C° 0 mm 1 mps 683 mmHg 93%
    04:00 +15°C° 0 mm 1 mps 683 mmHg 93%
    05:00 +16°C° 0 mm 1 mps 684 mmHg 91%
    06:00 +16°C° 0 mm 1 mps 684 mmHg 89%
    07:00 +16°C° 0 mm 1 mps 684 mmHg 88%
    08:00 +21°C° 0 mm 1 mps 685 mmHg 69%
    09:00 +25°C° 0 mm 1 mps 686 mmHg 50%
    10:00 +28°C° 0 mm 1 mps 687 mmHg 31%
    11:00 +30°C° 0 mm 1 mps 686 mmHg 29%
    12:00 +31°C° 0 mm 1 mps 686 mmHg 26%
    13:00 +32°C° 0 mm 1 mps 685 mmHg 24%
    14:00 +32°C° 0 mm 1 mps 685 mmHg 26%
    15:00 +31°C° 0 mm 2 mps 684 mmHg 28%
    16:00 +31°C° 0 mm 2 mps 683 mmHg 30%
    17:00 +28°C° 0 mm 2 mps 683 mmHg 45%
    18:00 +24°C° 0 mm 2 mps 683 mmHg 60%
    19:00 +20°C° 0 mm 2 mps 682 mmHg 75%
    20:00 +20°C° 0 mm 2 mps 683 mmHg 81%
    21:00 +20°C° 0 mm 1 mps 683 mmHg 87%
    22:00 +19°C° 0 mm 1 mps 683 mmHg 92%
    23:00 +18°C° 0 mm 1 mps 683 mmHg 93%

    Tomorrow, 29 February, Saturday

    Time Temperature Precipitation Wind Pressure Humidity
    00:00 +18°C° 0 mm 1 mps 683 mmHg 93%
    01:00 +18°C° 0 mm 1 mps 683 mmHg 94%
    02:00 +16°C° 0 mm 1 mps 682 mmHg 94%
    03:00 +16°C° 0 mm 1 mps 682 mmHg 93%
    04:00 +16°C° 0 mm 1 mps 682 mmHg 93%
    05:00 +16°C° 0 mm 1 mps 682 mmHg 89%
    06:00 +18°C° 0 mm 1 mps 683 mmHg 86%
    07:00 +18°C° 0 mm 1 mps 683 mmHg 83%
    08:00 +22°C° 0 mm 1 mps 684 mmHg 67%
    09:00 +26°C° 0 mm 1 mps 685 mmHg 51%
    10:00 +31°C° 0 mm 1 mps 686 mmHg 36%
    11:00 +31°C° 0 mm 1 mps 685 mmHg 34%
    12:00 +32°C° 0 mm 1 mps 685 mmHg 32%
    13:00 +32°C° 0 mm 1 mps 684 mmHg 30%
    14:00 +31°C° 0 mm 1 mps 684 mmHg 33%
    15:00 +31°C° 0 mm 1 mps 683 mmHg 35%
    16:00 +30°C° 0 mm 1 mps 682 mmHg 38%
    17:00 +27°C° 0 mm 1 mps 682 mmHg 47%
    18:00 +25°C° 0 mm 1 mps 682 mmHg 57%
    19:00 +23°C° 0 mm 1 mps 682 mmHg 67%
    20:00 +22°C° 0 mm 1 mps 682 mmHg 73%
    21:00 +21°C° 0 mm 1 mps 682 mmHg 80%
    22:00 +20°C° 0 mm 1 mps 683 mmHg 86%
    23:00 +20°C° 0 mm 1 mps 683 mmHg 88%

    Day after tomorrow, 1 March, Sunday

    Time Temperature Precipitation Wind Pressure Humidity
    00:00 +20°C° 0 mm 1 mps 682 mmHg 89%
    01:00 +19°C° 0 mm 1 mps 682 mmHg 91%
    02:00 +19°C° 0 mm 1 mps 682 mmHg 89%
    03:00 +19°C° 0 mm 1 mps 682 mmHg 87%
    04:00 +19°C° 0 mm 1 mps 682 mmHg 86%
    05:00 +19°C° 0 mm 1 mps 682 mmHg 81%
    06:00 +18°C° 0 mm 0 mps 683 mmHg 77%
    07:00 +19°C° 0 mm 0 mps 683 mmHg 72%
    08:00 +24°C° 0 mm 1 mps 684 mmHg 60%
    09:00 +27°C° 0 mm 1 mps 685 mmHg 48%
    10:00 +31°C° 0 mm 1 mps 686 mmHg 35%
    11:00 +32°C° 0 mm 1 mps 685 mmHg 33%
    12:00 +33°C° 0 mm 1 mps 685 mmHg 30%
    13:00 +35°C° 0 mm 2 mps 684 mmHg 27%
    14:00 +33°C° 0 mm 1 mps 683 mmHg 29%
    15:00 +33°C° 0 mm 1 mps 683 mmHg 30%
    16:00 +32°C° 0 mm 1 mps 682 mmHg 32%
    17:00 +29°C° 0 mm 1 mps 682 mmHg 41%
    18:00 +27°C° 0 mm 1 mps 682 mmHg 50%
    19:00 +24°C° 0 mm 1 mps 682 mmHg 59%
    20:00 +23°C° 0 mm 1 mps 682 mmHg 66%
    21:00 +22°C° 0 mm 1 mps 682 mmHg 72%
    22:00 +21°C° 0 mm 1 mps 683 mmHg 79%
    23:00 +21°C° 0 mm 1 mps 683 mmHg 76%

    2 March, Monday

    Time Temperature Precipitation Wind Pressure Humidity
    00:00 +21°C° 0 mm 1 mps 683 mmHg 73%
    01:00 +21°C° 0 mm 1 mps 682 mmHg 71%
    02:00 +21°C° 0 mm 1 mps 682 mmHg 68%
    03:00 +21°C° 0 mm 1 mps 682 mmHg 66%
    04:00 +20°C° 0 mm 1 mps 682 mmHg 64%
    05:00 +20°C° 0 mm 1 mps 682 mmHg 63%
    06:00 +21°C° 0 mm 1 mps 683 mmHg 62%
    07:00 +21°C° 0 mm 1 mps 684 mmHg 61%
    08:00 +24°C° 0 mm 1 mps 684 mmHg 51%
    09:00 +28°C° 0 mm 1 mps 685 mmHg 41%
    10:00 +31°C° 0 mm 1 mps 686 mmHg 31%
    11:00 +32°C° 0 mm 1 mps 686 mmHg 30%
    12:00 +34°C° 0 mm 2 mps 685 mmHg 28%
    13:00 +34°C° 0 mm 2 mps 684 mmHg 27%
    14:00 +34°C° 0 mm 2 mps 684 mmHg 29%
    15:00 +32°C° 0 mm 2 mps 683 mmHg 31%
    16:00 +31°C° 0 mm 1 mps 683 mmHg 32%
    17:00 +29°C° 0 mm 1 mps 683 mmHg 42%
    18:00 +27°C° 0 mm 1 mps 683 mmHg 51%
    19:00 +24°C° 0 mm 1 mps 683 mmHg 60%
    20:00 +23°C° 0 mm 1 mps 683 mmHg 67%
    21:00 +23°C° 0 mm 1 mps 683 mmHg 74%
    22:00 +22°C° 0 mm 1 mps 684 mmHg 81%
    23:00 +21°C° 0 mm 1 mps 683 mmHg 83%

    3 March, Tuesday

    Time Temperature Precipitation Wind Pressure Humidity
    00:00 +21°C° 0 mm 1 mps 683 mmHg 85%
    01:00 +20°C° 0 mm 1 mps 683 mmHg 87%
    02:00 +20°C° 0 mm 1 mps 683 mmHg 88%
    03:00 +19°C° 0 mm 1 mps 682 mmHg 88%
    04:00 +19°C° 0 mm 1 mps 682 mmHg 89%
    05:00 +19°C° 0 mm 1 mps 683 mmHg 86%
    06:00 +19°C° 0 mm 1 mps 683 mmHg 84%
    07:00 +20°C° 0 mm 1 mps 684 mmHg 81%
    08:00 +23°C° 0 mm 1 mps 685 mmHg 65%
    09:00 +27°C° 0 mm 1 mps 686 mmHg 49%
    10:00 +31°C° 0 mm 1 mps 687 mmHg 34%
    11:00 +32°C° 0 mm 1 mps 686 mmHg 31%
    12:00 +34°C° 0 mm 2 mps 685 mmHg 29%
    13:00 +35°C° 0 mm 2 mps 684 mmHg 26%
    14:00 +34°C° 0 mm 2 mps 684 mmHg 28%
    15:00 +32°C° 0 mm 2 mps 683 mmHg 31%
    16:00 +32°C° 0 mm 2 mps 683 mmHg 33%
    17:00 +29°C° 0 mm 2 mps 683 mmHg 44%
    18:00 +27°C° 0 mm 1 mps 682 mmHg 55%
    19:00 +24°C° 0 mm 1 mps 682 mmHg 66%
    20:00 +23°C° 0 mm 1 mps 683 mmHg 73%
    21:00 +22°C° 0 mm 1 mps 683 mmHg 79%
    22:00 +21°C° 0 mm 1 mps 683 mmHg 86%
    23:00 +21°C° 0 mm 1 mps 683 mmHg 85%

    4 March, Wednesday

    Time Temperature Precipitation Wind Pressure Humidity
    00:00 +21°C° 0 mm 1 mps 683 mmHg 85%
    01:00 +21°C° 0 mm 1 mps 682 mmHg 85%
    02:00 +20°C° 0 mm 1 mps 682 mmHg 85%
    03:00 +20°C° 0 mm 1 mps 682 mmHg 84%
    04:00 +20°C° 0 mm 1 mps 682 mmHg 84%
    05:00 +20°C° 0 mm 1 mps 683 mmHg 83%
    06:00 +20°C° 0 mm 1 mps 683 mmHg 83%
    07:00 +20°C° 0 mm 1 mps 684 mmHg 82%
    08:00 +23°C° 0 mm 1 mps 685 mmHg 70%
    09:00 +26°C° 0 mm 1 mps 686 mmHg 58%
    10:00 +29°C° 0 mm 1 mps 686 mmHg 46%
    11:00 +30°C° 0.1 mm 1 mps 686 mmHg 46%
    12:00 +30°C° 0.1 mm 1 mps 685 mmHg 45%
    13:00 +31°C° 0.1 mm 1 mps 684 mmHg 44%
    14:00 +29°C° 0.1 mm 1 mps 683 mmHg 51%
    15:00 +27°C° 0.1 mm 1 mps 683 mmHg 57%
    16:00 +26°C° 0.1 mm 1 mps 682 mmHg 63%
    17:00 +24°C° 0 mm 1 mps 682 mmHg 68%
    18:00 +23°C° 0 mm 1 mps 682 mmHg 73%
    19:00 +22°C° 0 mm 1 mps 682 mmHg 77%
    20:00 +22°C° 0 mm 1 mps 683 mmHg 82%
    21:00 +21°C° 0 mm 1 mps 683 mmHg 86%
    22:00 +20°C° 0 mm 1 mps 683 mmHg 91%
    23:00 +20°C° 0 mm 1 mps 683 mmHg 91%
    Show more